This is the latest recevied weather packets stored in our database for station/object VE7SML-6. If no packets are shown the sender has not sent any weather packets the latest 10 day(s).
| Time | Temp. | Humidity | Pressure | Rain* | Wind** | Luminosity | Snow |
|---|---|---|---|---|---|---|---|
| 1778208750 | 17.78° C | 50% | 1111 hPa | 0 mm | - | - | - |
| 1778208450 | 17.78° C | 50% | 1111 hPa | 0 mm | - | - | - |
| 1778206048 | 20° C | 49% | 1111 hPa | 0 mm | - | - | - |
| 1778205447 | 20° C | 49% | 1111 hPa | 0 mm | - | - | - |
| 1778204546 | 20.56° C | 49% | 1111 hPa | 0 mm | - | - | - |
| 1778203948 | 21.11° C | 49% | 1111 hPa | 0 mm | - | - | - |
| 1778203645 | 21.11° C | 49% | 1111 hPa | 0 mm | - | - | - |
| 1778202446 | 22.22° C | 47% | 1111 hPa | 0 mm | - | - | - |
| 1778202144 | 22.22° C | 47% | 1111 hPa | 0 mm | - | - | - |
| 1778201844 | 22.22° C | 46% | 1111 hPa | 0 mm | - | - | - |
| 1778201543 | 22.22° C | 45% | 1111 hPa | 0 mm | - | - | - |
| 1778201243 | 22.22° C | 43% | 1111 hPa | 0 mm | - | - | - |
| 1778200643 | 21.67° C | 39% | 1111 hPa | 0 mm | - | - | - |
| 1778200042 | 22.78° C | 50% | 1111 hPa | 0 mm | - | - | - |
| 1778199742 | 22.78° C | 50% | 1111 hPa | 0 mm | - | - | - |
| 1778199141 | 23.33° C | 50% | 1111 hPa | 0 mm | - | - | - |
| 1778198841 | 23.89° C | 50% | 1111 hPa | 0 mm | - | - | - |
| 1778196439 | 22.78° C | 48% | 1111 hPa | 0 mm | - | - | - |
| 1778195237 | 22.78° C | 47% | 1111 hPa | 0 mm | - | - | - |
| 1778194638 | 22.78° C | 47% | 1111 hPa | 0 mm | - | - | - |
| 1778194037 | 22.78° C | 47% | 1111 hPa | 0 mm | - | - | - |
| 1778193736 | 22.78° C | 10% | 1111 hPa | 0 mm | - | - | - |
| 1778193136 | 22.78° C | 47% | 1111 hPa | 0 mm | - | - | - |
| 1778192535 | 22.78° C | 47% | 1111 hPa | 0 mm | - | - | - |
| 1778192236 | 22.78° C | 47% | 1111 hPa | 0 mm | - | - | - |
* Rain latest hour (hover to see other rain measurements)
** Current wind speed in m/s (hover to see current wind gust speed)